HISAKI (SPRINT-A)

Last updated on Mon Sep 21 2026 00:03:33 GMT+0000 (Coordinated Universal Time)

1 39253U 13049A 26263.20927482 .00000096 00000+0 45262-4 0 9999 2 39253 29.7186 96.9057 0136424 67.1699 294.3219 13.55551158644329
UTC large
Height (km)
Speed (km/s)
/
Latitude / Longitude
Inclination (degrees)
Orbital Period (minutes)
Azimuth
Elevation
Range (km)
Doppler Factor

Next 0 passes for location: London (51.5072 / 0.1276)

No passes found over London.
HISAKI (SPRINT-A)